Tracking 35334 objects as of 12-Sep-2026
HD Live streaming from Space Station
objects crossing your sky now

FLOCK 3P 57


10-day predictions
FLOCK 3P 57 is classified as:


NORAD ID: 41978
Int'l Code: 2017-008AG
Launch date: February 15, 2017
Source: United States (US)
Launch site: SRIHARIKOTA (SRI)
Your satellite tracking list
Your tracking list is empty




NASA's NSSDC Master Catalog

Two Line Element Set (TLE):
1 41978U 17008AG  23012.83338757  .34021852  27674-5  48057-3 0  9990
2 41978  97.2006  86.8604 0021545 345.6480 107.2186 16.47223603329423
Source of the keplerian elements: AFSPC